sat.trackr.live / text

‹ back to catalog

GHGSAT-C7

NORAD 56209 · 2023-054AH

PAYLOAD ACTIVE UNKNOWN

§ Identity

Operator
Country
CA
Launch date
2023-04-15
Launch site
AFWTR
Launch vehicle
Mass (kg)
RCS (m²)

External: N2YO · Heavens-Above · Gunter

§ Orbital elements

Epoch: 2026-09-21T22:03:56.882304Z

Period
92.80 min
Inclination
97.2901°
Eccentricity
0.0008702
Mean motion
15.51693425 rev/d
Perigee alt
405.9 km
Apogee alt
417.7 km
Semi-major
6,789.9 km
B*
1.3969e-4
RAAN
174.5882°
Arg perigee
58.5411°
Mean anomaly
301.6691°
Rev number
19,338

§ Raw data

GHGSAT-C71 56209U 23054AH  26264.91940836  .00008226  00000+0  13969-3 0  99942 56209  97.2901 174.5882 0008702  58.5411 301.6691 15.51693425193389

JSON: /api/v1/satellites/56209 · /tle

For live sub-satellite position, see the globe view (requires WebGL).

§ Visibility from observer

Set your observer location to see the next 7 days of passes ≥ 10°. The values pass through the URL so the page stays shareable.

No JS? Fill the form by hand. The geolocation button needs JavaScript.